Weather History for Volk, WI

Change the Weather History Date:

Tuesday, March 20, 2012

  Actual Average Record
Temperature  
Mean Temperature 68 °F -  
Max Temperature 81 °F 41 °F 81 °F (2012)
Min Temperature 56 °F 26 °F 3 °F (2013)
Cooling Degree Days 3    
Growing Degree Days 18 (Base 50)    
Moisture  
Dew Point 56 °F    
Average Humidity 69    
Maximum Humidity 100    
Minimum Humidity 37    
Precipitation  
Precipitation 0.01 in - - ()
Sea Level Pressure  
Sea Level Pressure 29.86 in    
Wind  
Wind Speed 7 mph (SSE)    
Max Wind Speed 17 mph    
Max Gust Speed 29 mph    
Visibility 10 miles    
Events Rain    
Averages and records for this station are not official NWS values.
T = Trace of Precipitation, MM = Missing Value Source: NWS Daily Summary

Daily Weather History Graph

Daily Weather History Graph

Search for Another Location

Airport:

Trip Planner

Search our weather history database for the weather conditions in past years. The results will help you decide how hot, cold, wet, or windy it might be!

Date:

Astronomy

Mar. 20, 2012 Rise Set
Actual Time 7:03 AM CDT 7:14 PM CDT
Civil Twilight 6:34 AM CDT 7:42 PM CDT
Nautical Twilight 6:00 AM CDT 8:16 PM CDT
Astronomical Twilight 5:26 AM CDT 8:51 PM CDT
Moon 5:48 AM CDT (3/20) 5:40 PM CDT (3/20)
Length of Visible Light 13h 08m
Length of Day
12h 10m
Waning Crescent, 4% of the Moon is Illuminated
Mar 20
Waning Crescent
Mar 22
New
Mar 30
First Quarter
Apr 6
Full
Apr 13
Last Quarter

Hourly Weather History & Observations

Time (CDT) Temp. Dew Point Humidity Pressure Visibility Wind Dir Wind Speed Gust Speed Precip Events Conditions
12:33 AM 68.0 °F 60.8 °F 78% 29.80 in 10.0 mi South 9.2 mph - N/A Rain Light Rain
12:55 AM 68.2 °F 61.5 °F 79% 29.81 in 10.0 mi Variable 4.6 mph - 0.00 in Rain Light Rain
12:58 AM 68.0 °F 60.8 °F 78% 29.81 in 10.0 mi Variable 4.6 mph - N/A Rain Light Rain
1:31 AM 64.4 °F 64.4 °F 100% 29.81 in 10.0 mi Calm Calm - N/A   Scattered Clouds
1:55 AM 61.5 °F 61.5 °F 100% 29.82 in 10.0 mi ESE 4.6 mph - 0.01 in   Mostly Cloudy
2:55 AM 66.2 °F 60.8 °F 83% 29.82 in 10.0 mi South 5.8 mph - N/A   Mostly Cloudy
3:04 AM 66.2 °F 60.8 °F 83% 29.82 in 10.0 mi South 4.6 mph - N/A Rain Light Rain
3:15 AM 66.2 °F 60.8 °F 83% 29.82 in 10.0 mi South 5.8 mph - N/A   Partly Cloudy
3:55 AM 64.8 °F 60.1 °F 85% 29.82 in 10.0 mi South 3.5 mph - 0.00 in   Mostly Cloudy
4:55 AM 56.8 °F 56.8 °F 100% 29.83 in 10.0 mi ESE 4.6 mph - N/A   Mostly Cloudy
5:55 AM 58.8 °F 58.5 °F 99% 29.84 in 10.0 mi SE 8.1 mph - N/A   Clear
6:55 AM 59.0 °F 57.2 °F 94% 29.86 in 10.0 mi SSE 3.5 mph - N/A   Scattered Clouds
7:55 AM 57.2 °F 57.2 °F 100% 29.87 in 10.0 mi ESE 4.6 mph - N/A   Scattered Clouds
8:55 AM 64.4 °F 57.2 °F 77% 29.88 in 10.0 mi SSE 10.4 mph - N/A   Scattered Clouds
9:55 AM 68.0 °F 57.2 °F 68% 29.88 in 10.0 mi SSE 11.5 mph - N/A   Partly Cloudy
10:55 AM 71.6 °F 57.2 °F 60% 29.88 in 10.0 mi SSW 13.8 mph 19.6 mph N/A   Partly Cloudy
11:55 AM 75.2 °F 57.2 °F 53% 29.88 in 10.0 mi South 13.8 mph 21.9 mph N/A   Mostly Cloudy
12:55 PM 77.0 °F 57.2 °F 50% 29.88 in 10.0 mi South 17.3 mph 28.8 mph N/A   Scattered Clouds
1:55 PM 78.8 °F 57.2 °F 47% 29.87 in 10.0 mi South 11.5 mph 21.9 mph N/A   Mostly Cloudy
2:55 PM 78.8 °F 57.2 °F 47% 29.86 in 10.0 mi SSW 13.8 mph 25.3 mph N/A   Scattered Clouds
3:55 PM 78.8 °F 53.6 °F 42% 29.86 in 10.0 mi South 15.0 mph 25.3 mph N/A   Scattered Clouds
4:55 PM 80.6 °F 51.8 °F 37% 29.86 in 10.0 mi South 17.3 mph 24.2 mph N/A   Scattered Clouds
5:55 PM 77.0 °F 53.6 °F 44% 29.87 in 10.0 mi South 10.4 mph - N/A   Mostly Cloudy
6:55 PM 75.2 °F 50.0 °F 41% 29.88 in 10.0 mi SSE 6.9 mph - N/A   Mostly Cloudy
7:55 PM 69.8 °F 50.0 °F 49% 29.90 in 10.0 mi SE 5.8 mph - N/A   Scattered Clouds
8:55 PM 69.8 °F 48.2 °F 46% 29.93 in 10.0 mi SSE 4.6 mph - N/A   Scattered Clouds
9:55 PM 60.8 °F 48.2 °F 63% 29.93 in 10.0 mi ESE 4.6 mph - N/A   Scattered Clouds
10:55 PM 57.2 °F 48.2 °F 72% 29.95 in 10.0 mi SE 4.6 mph - N/A   Partly Cloudy
11:55 PM 69.8 °F 48.2 °F 46% 29.95 in 10.0 mi South 9.2 mph - N/A   Mostly Cloudy